Terug naar catalogus

STARLINK-36458

ActiefCommunicatieVLEO
NORAD 67343·PAYLOAD·🇺🇸 United States

Gelanceerd Jan 9, 2026 vanaf Cape Canaveral Space Force Station

Loading…

Volgende Passages (komende 24 uur)

TLE

VersSource: CelesTrak SupGP

Epoch: Sep 14, 2026, 23:20 UTC

1 67343C 26003K   26257.97270833  .00017777  00000+0  64399-3 0  2574
2 67343  42.9994 237.9573 0001356 262.9479 105.6154 15.27564126    14

Volg STARLINK-36458 in realtime met AllMySat

Download on the App Store